Location: Clarion
(42.7316°N, 93.7330°W)
Time: 01:11:22
(UTC+00:00)

Ariane Rocket - Pass Details

Date: 22 April 2026
Orbit: 755 x 763 km, 98.4° (Epoch: 20 May)

Event Time Altitude Azimuth Distance (km) Brightness Sun altitude
Exits shadow 04:16:35 56° 274° (W) 897 3.4 -28.9°
Drops below altitude 10° 04:21:16 10° 338° (NNW) 2,293 6.4 -29.4°
Sets 04:23:37 0° 343° (NNW) 3,223 7.3 -29.6°
